New York, NY

5:34 PM EDT on April 19, 2018 (GMT -0400)
La Guardia

Weather History for KLGA - April, 2013

Change the Weather History Date:

Tuesday, April 2, 2013

  Actual Average Record
Temperature  
Mean Temperature 40 °F 48 °F  
Max Temperature 45 °F 56 °F 79 °F (1967)
Min Temperature 34 °F 40 °F 32 °F (2018)
Degree Days  
Heating Degree Days 25 17  
Month to date heating degree days 40 35  
Since 1 July heating degree days 3987 4171  
Cooling Degree Days 0 0  
Month to date cooling degree days 0 0  
Year to date cooling degree days 0 0  
Moisture  
Dew Point 12 °F    
Average Humidity 35    
Maximum Humidity 47    
Minimum Humidity 22    
Precipitation  
Precipitation 0.00 in 0.14 in 1.66 in (2005)
Month to date precipitation 0.01 0.28  
Year to date precipitation 8.28 10.18  
Snow  
Snow 0.00 in 0.10 in 0.70 in (1965)
Month to date snowfall 0.0 0.1  
Since 1 July snowfall 22.2 26.5  
Snow Depth 0.00 in    
Sea Level Pressure  
Sea Level Pressure 29.99 in    
Wind  
Wind Speed 16 mph (WNW)    
Max Wind Speed 26 mph    
Max Gust Speed 41 mph    
Visibility 10 miles    
Events      
T = Trace of Precipitation, MM = Missing Value Source: NWS Daily Summary

Daily Weather History Graph

Daily Weather History Graph

Search for Another Location

Airport or City:

Astronomy

Apr. 02, 2013 Rise Set
Actual Time 6:36 AM EDT 7:21 PM EDT
Civil Twilight 6:09 AM EDT 7:49 PM EDT
Nautical Twilight 5:36 AM EDT 8:22 PM EDT
Astronomical Twilight 5:02 AM EDT 8:56 PM EDT
Moon 1:25 AM EDT (4/2) 11:23 AM EDT (4/2)
Length of Visible Light 13h 39m
Length of Day
12h 44m
Waning Gibbous, 56% of the Moon is Illuminated
Apr 2
Waning Gibbous
Apr 3
Last Quarter
Apr 10
New
Apr 18
First Quarter
Apr 25
Full

Hourly Weather History & Observations

Time (EDT) Temp. Windchill Dew Point Humidity Pressure Visibility Wind Dir Wind Speed Gust Speed Precip Events Conditions
12:51 AM 37.9 °F 28.2 °F 12.0 °F 35% 29.93 in 10.0 mi NW 18.4 mph 27.6 mph N/A   Clear
1:51 AM 37.4 °F 29.3 °F 14.0 °F 38% 29.94 in 10.0 mi NW 12.7 mph - N/A   Clear
2:51 AM 37.0 °F 27.0 °F 12.9 °F 37% 29.94 in 10.0 mi NW 18.4 mph 23.0 mph N/A   Clear
3:51 AM 35.6 °F 27.5 °F 14.0 °F 41% 29.93 in 10.0 mi NW 11.5 mph - N/A   Clear
4:51 AM 36.0 °F 27.5 °F 12.0 °F 37% 29.94 in 10.0 mi WNW 12.7 mph - N/A   Clear
5:51 AM 35.1 °F 25.9 °F 12.0 °F 39% 29.96 in 10.0 mi NW 13.8 mph 19.6 mph N/A   Partly Cloudy
6:51 AM 34.0 °F 23.8 °F 15.1 °F 46% 29.99 in 10.0 mi NW 16.1 mph 23.0 mph N/A   Partly Cloudy
7:51 AM 35.1 °F 25.9 °F 16.0 °F 46% 30.01 in 10.0 mi NW 13.8 mph 20.7 mph N/A   Partly Cloudy
8:51 AM 35.6 °F 26.6 °F 15.8 °F 44% 30.02 in 10.0 mi WNW 13.8 mph 24.2 mph N/A   Partly Cloudy
9:51 AM 36.0 °F 24.7 °F 14.0 °F 41% 30.01 in 10.0 mi NW 21.9 mph 27.6 mph N/A   Scattered Clouds
10:51 AM 37.0 °F 26.7 °F 12.9 °F 37% 30.02 in 10.0 mi West 19.6 mph 26.5 mph N/A   Mostly Cloudy
11:51 AM 37.9 °F 29.6 °F 9.0 °F 30% 30.01 in 10.0 mi West 13.8 mph 24.2 mph N/A   Scattered Clouds
12:51 PM 39.2 °F 31.2 °F 8.6 °F 28% 29.99 in 10.0 mi WNW 13.8 mph 26.5 mph N/A   Scattered Clouds
1:51 PM 42.8 °F 33.5 °F 10.4 °F 27% 29.98 in 10.0 mi West 23.0 mph 41.4 mph N/A   Partly Cloudy
2:51 PM 42.1 °F 32.8 °F 7.0 °F 24% 29.96 in 10.0 mi WNW 21.9 mph 33.4 mph N/A   Scattered Clouds
3:51 PM 43.0 °F 33.5 °F 8.1 °F 24% 29.95 in 10.0 mi WNW 24.2 mph 32.2 mph N/A   Scattered Clouds
4:51 PM 44.1 °F 37.4 °F 9.0 °F 24% 29.96 in 10.0 mi WNW 13.8 mph 26.5 mph N/A   Scattered Clouds
5:51 PM 44.1 °F 37.1 °F 8.1 °F 23% 29.97 in 10.0 mi WNW 15.0 mph 31.1 mph N/A   Mostly Cloudy
6:51 PM 43.0 °F 34.0 °F 7.0 °F 23% 29.99 in 10.0 mi WNW 21.9 mph 29.9 mph N/A   Partly Cloudy
7:51 PM 43.0 °F 35.7 °F 9.0 °F 25% 30.01 in 10.0 mi WNW 15.0 mph 26.5 mph N/A   Partly Cloudy
8:51 PM 42.1 °F 34.9 °F 9.0 °F 26% 30.03 in 10.0 mi WNW 13.8 mph 24.2 mph N/A   Partly Cloudy
9:51 PM 41.0 °F 33.9 °F 12.0 °F 31% 30.05 in 10.0 mi NNW 12.7 mph - N/A   Partly Cloudy
10:51 PM 39.9 °F 32.1 °F 14.0 °F 35% 30.06 in 10.0 mi NW 13.8 mph - N/A   Partly Cloudy
11:51 PM 39.0 °F 29.9 °F 12.9 °F 34% 30.08 in 10.0 mi NW 17.3 mph 25.3 mph N/A   Partly Cloudy